Miscellaneous Local Product
Issued by NWS North Platte, NE

Home | Current Version | Previous Version | Text Only | Print | Product List | Glossary On
Versions: 1 2 3 4 5 6 7 8 9 10 11 12 13 14 15 16 17 18 19 20 21 22 23 24 25 26 27 28 29 30 31 32 33 34 35 36 37 38 39 40 41 42 43 44 45 46 47 48 49 50
000
AXUS43 KLBF 090710
MISLBF


WESTERN AND NORTH CENTRAL NEBRASKA HOURLY WEATHER ROUNDUP
NATIONAL WEATHER SERVICE NORTH PLATTE NE
100 AM CST FRI DEC 09 2016

NOTE: "FAIR" INDICATES FEW OR NO CLOUDS BELOW 12,000 FEET WITH NO
SIGNIFICANT WEATHER AND/OR OBSTRUCTIONS TO VISIBILITY.

NOTE: STATIONS NOT REPORTING VARIABLES SUCH AS SKY/WEATHER OR
PRESSURE ARE PROVIDED BY RAWS AND APRS NETWORKS AND ARE NOT UNDER
NATIONAL WEATHER SERVICE QUALITY CONTROL.

...OBSERVATIONS IN AND NEAR THE EASTERN PANHANDLE OF NEBRASKA...

CITY           SKY/WX    TMP DP  RH WIND       PRES   REMARKS
PINE RIDGE     CLOUDY     7  -2  66 SE6       30.33F WCI  -3
CHADRON        CLOUDY     1  -5  75 N3        30.30F
ALLIANCE       CLOUDY     5   0  79 S14       30.26F WCI -12
SIDNEY         CLOUDY     9   2  73 S14       30.25F WCI  -7
CRESCENT LAKE    N/A      6   1  78 S9          N/A  WCI  -8
$$

...OBSERVATIONS IN NORTHERN NEBRASKA AND FAR SOUTHERN SOUTH DAKOTA...

CITY           SKY/WX    TMP DP  RH WIND       PRES   REMARKS
WINNER         FAIR      -2  -6  83 CALM      30.55F
VALENTINE      CLOUDY    -5 -10  79 NE5       30.48F WCI -16
THEDFORD       PTCLDY     0  -6  77 CALM      30.46F
AINSWORTH      CLOUDY    -3  -7  84 CALM      30.49F
O`NEILL        CLOUDY     0  -3  84 CALM      30.57S
ORD            CLOUDY    -1  -8  72 CALM      30.55F
BROKEN BOW     CLOUDY    -3  -8  79 CALM      30.50F
VALENTINE NWR    N/A     -2  -7  78 CALM        N/A
BUTTE            N/A      0  -4  84 CALM        N/A
HALSEY           N/A      3  -7  64 CALM        N/A
CHAMBERS         N/A     -1 -17  47 CALM        N/A
EWING            N/A      1  -3  83 CALM        N/A
$$

...OBSERVATIONS IN SOUTHWEST NEBRASKA AND FAR NORTHEAST COLORADO...

CITY           SKY/WX    TMP DP  RH WIND       PRES   REMARKS
WRAY           FAIR      12   5  73 SE5       30.35F WCI   4
HOLYOKE        FAIR      10   3  72 SE6       30.35F WCI   1
IMPERIAL       CLOUDY    10   2  69 SE8       30.40F WCI  -2
OGALLALA       CLEAR      8   1  75 S5        30.39F WCI  -1
NORTH PLATTE   CLOUDY     2  -3  80 E6        30.47F WCI  -9
MCCOOK         CLOUDY     0  -5  79 CALM      30.50F
LEXINGTON      CLOUDY     4  -1  79 E3        30.52F
STAPLETON        N/A      3  -4  71 CALM        N/A
GOTHENBURG       N/A      4  -3  72 CALM        N/A
CALLAWAY         N/A      3  -2  80 SE3         N/A
$$

...OBSERVATIONS IN CENTRAL LINCOLN COUNTY AREA...

CITY           SKY/WX    TMP DP  RH WIND       PRES   REMARKS
N.P. AIRPORT   CLOUDY     2  -3  80 E6        30.47F WCI  -9
N.P. DOWNTOWN    N/A      7   2  79 CALM        N/A
N.P. SOUTHEAST   N/A      5   0  81 CALM        N/A
N.P. HILLCREST   N/A      7   1  75 E3          N/A
$$

...SOME OBSERVATIONS FROM AROUND THE REGION...

CITY           SKY/WX    TMP DP  RH WIND       PRES   REMARKS
LARAMIE        CLOUDY    24  16  71 SW12G22   30.02S WCI  13
CHEYENNE       CLOUDY    11   4  73 VRB7      30.08F WCI   0
DENVER         CLOUDY     6   2  83 CALM      30.14F
AKRON          CLOUDY    12   4  70 S13       30.23F WCI  -3
SCOTTSBLUFF    CLOUDY     8   1  73 SE13      30.24F WCI  -8
RAPID CITY     CLOUDY     2  -5  72 E3        30.36F
BISMARCK       CLOUDY    -6 -10  83 CALM      30.59F
PIERRE         CLOUDY     3  -3  76 E6        30.56F WCI  -8
SIOUX FALLS    CLEAR      3  -1  83 W6        30.59S WCI  -8
OMAHA          CLEAR     10   3  73 N6        30.65S WCI   0
GRAND ISLAND   CLOUDY     5   0  79 CALM      30.59F
KANSAS CITY    CLEAR     15   7  70 NW5       30.64S WCI   8
WICHITA        PTCLDY    13   9  84 CALM      30.65S
OKLAHOMA CITY  CLOUDY    27   7  42 N5        30.65S WCI  22
DALLAS         CLEAR     27  17  66 N7        30.66F WCI  19
AMARILLO       CLOUDY    24  11  57 S13       30.48F WCI  12
DODGE CITY     CLOUDY    19  10  68 SE6       30.53F WCI  11
HAYS           CLOUDY     7   3  84 CALM      30.58F
GOODLAND       CLOUDY     8   2  76 S10       30.37F WCI  -6
$$




USA.gov is the U.S. government's official web portal to all federal, state and local government web resources and services.